Volver al catálogo

STARLINK-35399

ActivoComunicacionesVLEO
NORAD 66029·PAYLOAD·🇺🇸 United States

Lanzado Oct 16, 2025 desde Cape Canaveral Space Force Station

Loading…

Próximos Pases (próximas 24 horas)

TLE

ActualizadoSource: CelesTrak SupGP

Época: Sep 14, 2026, 21:21 UTC

1 66029C 25232AA  26257.89006944  .00011157  00000+0  32974-3 0  2578
2 66029  53.1576 302.2617 0001173  82.1045 248.1321 15.34375521    13

Sigue STARLINK-35399 en tiempo real con AllMySat

Download on the App Store